[[{"header":{"parameterUnit":"m.s-1","parameterCategory":1,"la1":30.2992,"la2":30.254,"lo1":-89.0895,"lo2":-89.0443,"dy":0.0025,"dx":0.0025,"nx":19,"ny":19,"refTime":"2026-05-04T03:00:00:Z","depth":0,"parameterNumber":2,"parameterNumberName":"U-component_of_WINDS"},"data":[0,0,0,0.64,0.6399,0.6341,0.6341,0.6275,0.6275,0,0,0,0,0,0,0,0,0,0,0,0.6424,0.6423,0.64,0.6399,0.6341,0.6341,0.6275,0.6275,0,0,0,0,0,0,0,0,0,0,0,0.6424,0.6424,0.6423,0.6399,0.6341,0.6341,0.6275,0.6316,0,0,0,0,0,0,0,0,0,0,0.637,0.6399,0.6424,0.6423,0.6398,0.6341,0.6341,0.6317,0.6313,0.6305,0,0.6302,0,0.6287,0.6271,0.6271,0,0,0,0.6393,0.6403,0.6381,0.6423,0.6398,0.6341,0.6366,0.6315,0.631,0.63,0.6301,0.6298,0.6286,0.6271,0.627,0.6245,0.6245,0,0,0.6397,0.6417,0.6385,0.6378,0.639,0.6368,0.6364,0.6312,0.6314,0.63,0.6296,0.6285,0.627,0.627,0.6245,0.6245,0,0,0,0.6409,0.6419,0.6399,0.6381,0.637,0.6366,0.6362,0.6316,0.6308,0.6295,0.6284,0.627,0.6269,0.6245,0.6245,0.6271,0,0,0,0.6411,0.6427,0.64,0.6412,0.6372,0.6343,0.6367,0.6311,0.6305,0.6285,0.627,0.6269,0.6245,0.6245,0.627,0.6279,0,0,0,0.6425,0.6428,0.6422,0.6413,0.6389,0.6343,0.6332,0.6309,0.6298,0.6271,0.6269,0.6245,0.6245,0.6269,0.6278,0.6277,0,0,0,0.6446,0.6446,0.6423,0.6419,0.639,0.636,0.6332,0.6309,0.6288,0.627,0.6245,0.6245,0.6268,0.6277,0.6277,0.6281,0.6284,0,0,0.6458,0.6449,0.6444,0.6422,0.6401,0.6367,0.635,0.6312,0.629,0.6261,0.626,0.627,0.6278,0.6277,0.63,0.6303,0,0,0,0.6455,0.6452,0.6442,0.6424,0.6395,0.637,0.6333,0.6318,0.6292,0.628,0.627,0.6273,0.6272,0.6273,0.6276,0.6273,0.6247,0.6247,0.6247,0.65,0.6473,0.6463,0.6429,0.6411,0.6372,0.6354,0.6327,0.6305,0.6303,0.6294,0.6311,0.6313,0.6315,0.6312,0.6294,0.6295,0.6295,0.6295,0.6514,0.6505,0.6474,0.6454,0.6425,0.6407,0.6368,0.6352,0.633,0.6316,0.6314,0.63,0.6319,0.6315,0.6296,0.6296,0.6296,0.6296,0.6296,0.654,0.653,0.6513,0.6482,0.6461,0.6425,0.6405,0.6379,0.6354,0.6352,0.6338,0.6337,0.6333,0.6347,0.6347,0.6347,0.6347,0.6347,0.6347,0.6573,0.6553,0.654,0.6508,0.6492,0.6467,0.6426,0.6408,0.6382,0.6364,0.6364,0.6341,0.6327,0.6323,0.6348,0.6348,0.6348,0.6348,0.6348,0.6596,0.6586,0.6566,0.655,0.6509,0.6489,0.6455,0.6422,0.6403,0.6394,0.6371,0.6365,0.6354,0.6351,0.6348,0.6378,0.6378,0.6378,0.6378,0.6617,0.6609,0.6581,0.6557,0.6529,0.6496,0.6472,0.6439,0.6404,0.639,0.6382,0.6376,0.6374,0.6363,0.6361,0.6357,0.6389,0.6389,0.6389,0.6629,0.6616,0.6602,0.6568,0.6533,0.6504,0.648,0.6451,0.6408,0.6389,0.6378,0.6378,0.6367,0.6366,0.6346,0.6343,0.6336,0,0]},{"header":{"parameterUnit":"m.s-1","parameterCategory":1,"la1":30.2992,"la2":30.254,"lo1":-89.0895,"lo2":-89.0443,"dy":0.0025,"dx":0.0025,"nx":19,"ny":19,"refTime":"2026-05-04T03:00:00:Z","depth":0,"parameterNumber":3,"parameterNumberName":"V-component_of_WINDS"},"data":[0,0,0,6.5836,6.584,6.6024,6.6025,6.6257,6.626,0,0,0,0,0,0,0,0,0,0,0,6.5785,6.5787,6.5836,6.5841,6.6024,6.6025,6.6257,6.626,0,0,0,0,0,0,0,0,0,0,0,6.5784,6.5786,6.5788,6.5841,6.6024,6.6025,6.6257,6.6118,0,0,0,0,0,0,0,0,0,0,6.5939,6.5897,6.5786,6.5789,6.5842,6.6024,6.6025,6.6111,6.6126,6.6175,0,6.6222,0,6.6245,6.6275,6.6276,0,0,0,6.5837,6.5884,6.5931,6.5789,6.5844,6.6023,6.594,6.612,6.6137,6.6195,6.6226,6.6234,6.6249,6.6277,6.6278,6.6575,6.6576,0,0,6.5827,6.5819,6.5919,6.5942,6.5918,6.5934,6.5946,6.613,6.6161,6.6226,6.624,6.6253,6.6279,6.628,6.6573,6.6575,0,0,0,6.58,6.5812,6.5854,6.5933,6.5966,6.594,6.5953,6.6153,6.6168,6.6242,6.6255,6.628,6.6283,6.6572,6.6574,6.6642,0,0,0,6.5794,6.5796,6.585,6.5847,6.5963,6.6063,6.5972,6.6155,6.6176,6.6254,6.628,6.6285,6.657,6.6573,6.6637,6.6676,0,0,0,6.5772,6.5794,6.5822,6.5846,6.5925,6.606,6.6085,6.616,6.6184,6.6276,6.6286,6.6569,6.6572,6.6632,6.6668,6.675,0,0,0,6.5745,6.588,6.5823,6.5978,6.5924,6.6102,6.6084,6.6217,6.6304,6.6281,6.657,6.6574,6.6631,6.6663,6.6745,6.6818,6.6848,0,0,6.5911,6.59,6.5992,6.5946,6.6133,6.6075,6.627,6.6357,6.6371,6.6505,6.6512,6.6639,6.6667,6.6749,6.7021,6.7044,0,0,0,6.6041,6.6107,6.6158,6.6242,6.6312,6.6374,6.6432,6.6463,6.6577,6.644,6.6691,6.6709,6.6757,6.6792,6.6812,6.6853,6.659,6.659,6.6589,6.6264,6.6277,6.6428,6.6462,6.6542,6.6599,6.6664,6.6715,6.6704,6.6763,6.6803,6.6966,6.7007,6.7022,6.7065,6.6843,6.6843,6.6843,6.6843,6.6507,6.6601,6.6581,6.6722,6.6732,6.6848,6.6906,6.6893,6.7,6.6938,6.6981,6.6911,6.7048,6.7086,6.6849,6.6848,6.6847,6.6847,6.6846,6.6654,6.6701,6.6737,6.6857,6.6947,6.6975,6.7078,6.7084,6.7089,6.7132,6.7173,6.7172,6.717,6.7151,6.7152,6.7152,6.7153,6.7153,6.7154,6.6792,6.6831,6.6919,6.7003,6.7055,6.7124,6.718,6.723,6.7287,6.7283,6.7283,6.7263,6.706,6.7008,6.7162,6.7161,6.716,6.7159,6.7158,6.7032,6.6978,6.7115,6.7167,6.7263,6.735,6.7355,6.7457,6.7499,6.7549,6.752,6.737,6.7358,6.7342,6.7299,6.7519,6.7519,6.7519,6.7519,6.7155,6.715,6.7289,6.7372,6.7454,6.7471,6.762,6.7663,6.7698,6.7723,6.7692,6.7635,6.7619,6.7617,6.7595,6.7555,6.7835,6.7835,6.7836,6.7303,6.7305,6.7433,6.7469,6.7543,6.7606,6.7745,6.7837,6.7865,6.7849,6.7743,6.773,6.7638,6.7609,6.759,6.7555,6.7482,0,0]}]]